Regional Weather Roundup
Issued by NWS

Home | Current Version | Previous Version | Graphics & Text | Print | Product List | Glossary Off
Versions: 1 2 3 4 5 6 7 8 9 10 11 12 13 14 15 16 17 18 19 20 21 22 23 24 25 26 27 28 29 30 31 32 33 34 35 36 37 38 39 40 41 42 43 44 45 46 47 48 49 50

000
ASUS43 KDTX 200110
RWRMI
MICHIGAN HOURLY REGIONAL WEATHER ROUNDUP
NATIONAL WEATHER SERVICE DETROIT/PONTIAC MI
900 PM EDT FRI SEP 19 2014

NOTE: "FAIR" INDICATES FEW OR NO CLOUDS BELOW 12,000 FEET WITH NO
SIGNIFICANT WEATHER AND/OR OBSTRUCTION TO VISIBILITY.

MIZ047>049-052>055-059>063-066>070-074>076-081>083-200200-
SOUTHEAST LOWER MICHIGAN

CITY           SKY/WX    TMP DP  RH WIND       PRES   REMARKS
ADRIAN         CLEAR     56  51  84 SE6       30.09F
ALMA           PTCLDY    56  50  80 S7        30.03F
ANN ARBOR      PTCLDY    54  48  80 SE5       30.09S
BAD AXE        PTCLDY    55  49  81 S15       30.05F
CARO           PTCLDY    54  46  76 S6        30.04S
DETROIT CITY   PTCLDY    61  50  67 S7        30.09F
DETROIT        MOCLDY    59  52  77 SE6       30.10S
FLINT          PTCLDY    56  44  64 S7        30.06F
GROSSE ILE     PTCLDY    57  54  88 CALM      30.09S
HILLSDALE      CLEAR     52  49  91 CALM      30.08S
HOWELL         CLEAR     55  50  82 SE10      30.06F

CITY           SKY/WX    TMP DP  RH WIND       PRES   REMARKS
JACKSON        CLEAR     56  48  74 SE8       30.07S
LAMBERTVILLE   PTCLDY    55  52  88 CALM      30.10S
LANSING        CLEAR     59  49  69 S8        30.06R
LAPEER         FAIR      53  46  77 S3        30.07S
MASON          CLEAR     55  49  80 SE6       30.06S
MONROE         PTCLDY    54  52  94 CALM      30.09S
MT. CLEMENS    PTCLDY    57  56  97 S10       30.08S
PONTIAC        MOCLDY    56  44  64 S6        30.08S
PORT HOPE        N/A     57  46  66 VRB6      30.03S
PORT HURON     MOCLDY    55  50  82 S6        30.09F
TRI CITIES     CLEAR     59  47  64 S9        30.04S
TROY           PTCLDY    60  49  67 S6        30.11S
SAGINAW HB     PTCLDY    55  43  62 S6        30.04S
$$
MIZ043>046-050>051-056>058-064>065-071>073-077>080-200200-
SOUTHWEST LOWER MICHIGAN

CITY           SKY/WX    TMP DP  RH WIND       PRES   REMARKS
BATTLE CREEK   CLEAR     59  48  67 S6        30.06S
BENTON HARBOR  CLEAR     59  49  69 SE5       30.02S
BIG RAPIDS     PTCLDY    59  54  82 S7        29.97F
COLDWATER      CLEAR     56  50  79 SE3       30.07S
FREMONT        FAIR      61  50  67 S7        29.98F
HOLLAND        PTCLDY    59  52  77 SE7       30.01F
GRAND RAPIDS   PTCLDY    58  52  80 S6        30.03F
IONIA          FAIR      59  50  71 S6        30.03F
KALAMAZOO      CLEAR     62  49  62 S6        30.06R
LUDINGTON      MOCLDY    64  53  65 S12G21    29.93F
MARSHALL       CLEAR     58  47  67 S5        30.05F
MOUNT PLEASANT PTCLDY    59  50  73 S5        30.01S
MUSKEGON       MOCLDY    64  52  64 S8        29.99F
SOUTH HAVEN    PTCLDY    61  51  70 CALM      30.02S
$$
MIZ016>042-200200-
NORTHERN LOWER MICHIGAN

CITY           SKY/WX    TMP DP  RH WIND       PRES   REMARKS
ALPENA         PTCLDY    57  49  74 S8        29.98R
BEAVER ISLAND  MOCLDY    65  51  60 S16G26    29.83F
BELLAIRE       PTCLDY    64  51  64 S9        29.91F
CADILLAC       PTCLDY    60  52  75 S10G17    29.96S
CHARLEVOIX     PTCLDY    64  53  68 S12G17    29.88F
FRANKFORT      MOCLDY    67  49  53 S16G32    29.89F
GAYLORD        PTCLDY    58  50  75 S14       29.93F
GRAYLING       PTCLDY    59  52  78 S7        29.97F
HARBOR SPRINGS PTCLDY    63  52  67 S7        29.88F
HOUGHTON LAKE  PTCLDY    58  51  78 S9        29.98S
MANISTEE       MOCLDY    64  48  55 S7G16     29.93S
OSCODA         CLEAR     57  48  72 S10       29.99F
PELLSTON       PTCLDY    63  51  65 S12       29.87F
ROGERS CITY    MOCLDY    58  52  78 S9        29.94F
TRAVERSE CITY  MOCLDY    65  51  60 VRB6      29.89F
$$
MIZ007>008-015-200200-
EASTERN UPPER MICHIGAN

CITY           SKY/WX    TMP DP  RH WIND       PRES   REMARKS
KINROSS        MOCLDY    61  52  72 S16G23    29.84F
MACKINAC ISLAN FAIR      62  51  68 S14G23    29.85F
NEWBERRY       CLOUDY    61  51  69 S25G41    29.78S
S. S. MARIE    CLOUDY    60  51  72 SE14      29.82F
MUNISING         N/A     64  51  62 S21G31    29.73R
$$
MIZ004>006-011>014-085-200200-
CENTRAL UPPER MICHIGAN

CITY           SKY/WX    TMP DP  RH WIND       PRES   REMARKS
MANISTIQUE     CLOUDY    62  54  75 S16G36    29.81R
ESCANABA       CLOUDY    63  52  67 S16G24    29.80R
MENOMINEE      MOCLDY    64  52  63 SW12G22   29.81R
SAWYER-GWINN   CLOUDY    61  54  77 S15G23    29.76R
$$
MIZ001>003-009>011-084-200200-
WESTERN UPPER MICHIGAN

CITY           SKY/WX    TMP DP  RH WIND       PRES   REMARKS
IRON MOUNTAIN  CLOUDY    66  52  60 S12G23    29.75F
HOUGHTON       CLOUDY    62  55  77 W8        29.66S
COPPER HARBOR    N/A     57  55  93 CALM      29.64F
IRONWOOD       CLOUDY    64  57  77 SW10G16   29.65R
$$

ABBREVIATIONS USED IN REMARKS
   TC - TEMPERATURE IN CELSIUS
  WCI - WIND CHILL INDEX
   HX - HEAT INDEX
  VSB - VISIBILITY



USA.gov is the U.S. government's official web portal to all federal, state and local government web resources and services.